Paganella, Italy

9:49 PM CEST on May 25, 2018 (GMT +0200)
Paganella

Weather History for LIVP - May, 2013

Change the Weather History Date:

Wednesday, May 22, 2013

  Actual Average Record
Temperature  
Mean Temperature 36 °F -  
Max Temperature 44 °F 50 °F 57 °F (2007)
Min Temperature 29 °F 37 °F 28 °F (2015)
Degree Days  
Heating Degree Days 28    
Moisture  
Dew Point 29 °F    
Average Humidity 77    
Maximum Humidity 100    
Minimum Humidity 46    
Precipitation  
Precipitation 0.00 in 0.11 in - ()
Sea Level Pressure  
Sea Level Pressure 29.77 in    
Wind  
Wind Speed 8 mph ()    
Max Wind Speed 23 mph    
Max Gust Speed 36 mph    
Visibility 6.2 miles    
Events Fog    
Averages and records for this station are not official NWS values.
T = Trace of Precipitation, MM = Missing Value Source: Averaged Metar Reports

Daily Weather History Graph

Daily Weather History Graph

Search for Another Location

Airport or City:

Astronomy

May. 22, 2013 Rise Set
Actual Time 5:35 AM CEST 8:49 PM CEST
Civil Twilight 4:59 AM CEST 9:26 PM CEST
Nautical Twilight 4:12 AM CEST 10:13 PM CEST
Astronomical Twilight 3:14 AM CEST 11:12 PM CEST
Moon 5:44 PM CEST (5/22) 3:40 AM CEST (5/22)
Length of Visible Light 16h 26m
Length of Day
15h 14m
Waxing Gibbous, 89% of the Moon is Illuminated
May 22
Waxing Gibbous
May 25
Full
May 31
Last Quarter
Jun 8
New
Jun 16
First Quarter

Hourly Weather History & Observations

Time (CEST) Temp. Windchill Dew Point Humidity Pressure Visibility Wind Dir Wind Speed Gust Speed Precip Events Conditions
12:55 AM 32.0 °F 22.1 °F 30.2 °F 93% 29.83 in 6.2 mi SSW 13.8 mph - N/A   Partly Cloudy
1:55 AM 30.2 °F 19.3 °F 30.2 °F 100% 29.83 in 6.2 mi SW 15.0 mph - N/A   Mostly Cloudy
2:00 AM 31 °F - 30 °F 93%  in 7 mi SW 15.0 mph - -   Scattered Clouds
2:55 AM 30.2 °F 24.3 °F 28.4 °F 93% 29.80 in 0.2 mi SW 5.8 mph - N/A Fog Light Freezing Fog
3:55 AM 30.2 °F 24.3 °F 28.4 °F 93% 29.77 in - NW 5.8 mph - N/A   Clear
4:55 AM 30.2 °F 23.4 °F 28.4 °F 93% 29.77 in - NNW 6.9 mph - N/A   Clear
5:00 AM 30 °F - 28 °F 90%  in 12 mi NNW 6.9 mph - -   Partly Cloudy
5:55 AM 30.2 °F 25.4 °F 28.4 °F 93% 29.77 in 6.2 mi NNW 4.6 mph - N/A   Partly Cloudy
6:55 AM 32.0 °F 26.4 °F 30.2 °F 93% 29.77 in 6.2 mi NE 5.8 mph - N/A   Partly Cloudy
7:55 AM 33.8 °F 28.6 °F 30.2 °F 87% 29.77 in 6.2 mi ENE 5.8 mph - N/A   Scattered Clouds
8:00 AM 33 °F - 31 °F 87%  in 6 mi ENE 5.8 mph - -   Partly Cloudy
8:55 AM 35.6 °F - 30.2 °F 81% 29.77 in 6.2 mi WSW 1.2 mph - N/A   Scattered Clouds
9:55 AM 37.4 °F 34.9 °F 26.6 °F 65% 29.77 in 6.2 mi SSW 3.5 mph - N/A   Mostly Cloudy
10:55 AM 37.4 °F - 32.0 °F 81% 29.77 in 6.2 mi ENE 2.3 mph - N/A   Mostly Cloudy
11:00 AM 38 °F - 31 °F 68%  in 6 mi ENE 2.3 mph - -   Mostly Cloudy
11:55 AM 37.4 °F 33.8 °F 32.0 °F 81% 29.77 in 6.2 mi SW 4.6 mph - N/A   Scattered Clouds
12:55 PM 39.2 °F 35.9 °F 33.8 °F 81% 29.77 in 6.2 mi SSW 4.6 mph - N/A   Mostly Cloudy
1:55 PM 41.0 °F 39.0 °F 30.2 °F 65% 29.77 in 6.2 mi Variable 3.5 mph - N/A   Partly Cloudy
2:00 PM 41 °F - 29 °F 52%  in 37 mi 3.5 mph - -   Partly Cloudy
2:55 PM 41.0 °F 39.0 °F 26.6 °F 57% 29.77 in 6.2 mi Variable 3.5 mph - N/A   Partly Cloudy
3:55 PM 42.8 °F 40.1 °F 28.4 °F 57% 29.77 in 6.2 mi South 4.6 mph - N/A   Partly Cloudy
4:55 PM 44.6 °F 43.1 °F 30.2 °F 57% 29.74 in 6.2 mi Variable 3.5 mph - N/A   Partly Cloudy
5:00 PM 44 °F - 30 °F 46%  in 44 mi 3.5 mph - -   Scattered Clouds
6:55 PM 41.0 °F 36.4 °F 26.6 °F 57% 29.74 in 6.2 mi North 6.9 mph - N/A   Partly Cloudy
7:55 PM 39.2 °F 33.6 °F 28.4 °F 65% 29.74 in 6.2 mi NNE 8.1 mph - N/A   Scattered Clouds
8:00 PM 40 °F - 29 °F 53%  in 34 mi NNE 8.1 mph - -   Partly Cloudy
8:55 PM 37.4 °F 30.8 °F 26.6 °F 65% 29.74 in 6.2 mi North 9.2 mph - N/A   Scattered Clouds
9:55 PM 35.6 °F 27.1 °F 30.2 °F 81% 29.74 in 6.2 mi North 12.7 mph - N/A   Scattered Clouds
10:55 PM 33.8 °F 21.9 °F 30.2 °F 87% 29.74 in 6.2 mi North 21.9 mph - N/A   Scattered Clouds
11:00 PM 34 °F - 31 °F 83%  in 25 mi North 21.9 mph - -   Partly Cloudy
11:55 PM 33.8 °F 21.6 °F 26.6 °F 75% 29.71 in 6.2 mi North 23.0 mph 35.7 mph N/A   Partly Cloudy